SCP
1 1 1 1 1 0 0 0 1 1 1 1 0 0 0 0 1 1 1 0 0 0 0 0 0 0 0 0 0 0 0 0 0 0 0 0 0 0 0 0 0 0 0
1 1 1 1 1 1 1 1 1 1 1 1 1 0 0 0 1 1 0 0 0 0 0 0 0 0 0 0 0 0 0 0 0 0 0 0 0 0 0 0 0 0 0
1 1 1 1 1 1 1 1 1 1 1 1 1 1 1 0 0 0 0 0 0 0 0 0 0 0 0 0 0 0 0 0 0 0 0 0 0 0 0 0 0 0 0
1 1 1 1 1 1 1 1 1 1 1 1 1 1 1 0 0 0 0 0 0 0 0 0 0 0 0 0 0 0 0 0 0 0 0 0 0 0 0 0 0 0 0
1 1 1 1 1 1 1 1 1 1 1 1 1 1 1 0 0 0 0 0 0 0 0 0 0 0 0 0 0 0 0 0 0 0 0 0 0 0 0 0 0 0 0
1 1 2 2 1 1 1 1 1 1 1 1 1 1 1 1 1 1 0 0 0 0 0 0 0 0 0 0 0 0 0 0 0 0 0 0 0 0 0 0 0 0 0
1 1 2 2 2 2 1 1 1 1 2 1 1 1 1 1 1 1 1 1 0 0 0 0 0 0 0 0 0 0 0 0 0 0 0 0 0 0 0 0 0 0 0
1 1 2 2 2 2 2 2 2 2 2 2 2 1 1 2 2 1 1 1 1 0 0 0 0 0 0 0 0 0 0 0 0 0 0 0 0 0 0 0 0 0 0
1 1 1 2 2 2 2 2 2 2 2 2 2 2 1 1 2 1 1 1 1 0 0 0 0 0 0 0 0 0 0 0 0 0 0 0 0 0 0 0 0 0 0
1 1 1 1 2 2 2 2 2 2 2 3 3 2 2 1 1 1 1 1 1 1 1 1 1 1 1 1 1 1 1 1 0 0 0 0 0 0 0 0 0 0 0
1 1 1 1 2 2 2 2 2 1 2 2 2 2 2 2 1 1 1 1 1 1 1 1 1 1 1 1 1 1 1 1 1 0 0 0 0 0 0 0 0 0 0
1 1 1 1 1 2 2 3 2 2 1 1 2 2 2 2 2 2 1 1 1 1 0 0 0 0 1 1 1 1 1 1 1 0 0 0 0 0 0 0 0 0 0
1 1 1 1 1 1 2 2 3 2 2 2 1 1 2 2 2 2 2 2 1 1 1 1 0 0 1 1 1 1 1 1 0 0 0 0 0 0 0 0 0 0 0
1 1 1 1 1 1 1 2 2 3 3 2 2 2 2 2 2 2 2 2 1 1 1 1 1 1 1 1 1 1 1 1 0 0 0 0 0 0 0 0 0 0 0
1 1 1 1 1 1 1 1 2 2 3 3 2 2 2 2 2 2 2 2 2 1 1 1 1 1 1 1 1 1 1 1 0 0 0 0 0 0 0 0 0 0 0
1 1 1 1 1 1 1 1 1 1 2 2 3 3 2 2 2 1 1 1 1 1 1 1 1 1 1 0 0 0 0 0 0 0 0 0 0 0 0 0 0 0 0
1 1 1 1 1 1 1 1 1 1 1 1 2 3 3 3 2 1 0 0 1 1 1 1 1 1 1 0 0 0 0 0 0 0 0 0 0 0 0 0 0 0 0
0 1 1 1 1 1 1 1 1 1 1 1 2 3 4 4 2 1 0 0 0 1 1 1 1 1 1 0 0 0 0 0 0 0 0 0 0 0 0 0 0 0 0
1 1 1 1 1 1 1 0 0 0 0 0 1 3 5 5 3 1 0 0 0 0 1 1 1 1 1 0 0 0 0 0 0 0 0 0 0 0 0 0 0 0 0
1 1 1 1 1 1 0 0 0 0 0 0 1 2 4 5 4 2 1 0 0 0 0 0 0 0 0 0 0 0 0 0 0 0 0 0 0 0 0 0 0 0 0
1 1 1 1 1 1 0 0 0 1 1 1 1 2 4 5 4 2 1 0 0 0 0 0 0 0 0 0 0 0 0 0 0 0 0 0 0 0 0 0 0 0 0
1 2 2 1 1 1 0 0 1 1 1 1 1 2 4 5 5 3 1 1 0 0 0 0 0 0 0 0 0 0 0 0 0 0 0 0 0 0 0 0 0 0 0
1 2 2 1 1 1 1 1 1 1 1 1 2 3 4 5 5 3 2 1 0 0 0 0 0 0 0 0 0 0 0 0 0 0 0 0 0 0 0 0 0 0 0
2 2 2 1 1 1 1 1 1 1 1 1 2 4 5 5 4 3 2 1 0 0 0 0 0 0 0 0 0 0 0 0 0 0 0 0 0 0 0 0 0 0 0
2 2 2 2 1 1 1 1 1 1 1 1 3 5 5 4 4 3 1 1 0 0 0 0 0 0 0 0 0 0 0 0 0 0 0 0 0 0 0 0 0 0 0
2 2 2 2 1 1 1 1 1 1 1 2 4 5 5 4 3 2 1 0 0 0 0 0 0 0 0 0 0 0 0 0 0 0 0 0 0 0 0 0 0 0 0
Wind_Speed
8 7 6 6 6 5 5 5 5 4 3 2 3 2 2 2 2 3 3 4 4 4 3 3 3 4 3 3 3 3 4 2 2 3 3 3 4 4 3 3 4 5 5
9 8 7 6 5 5 5 6 5 4 4 3 3 2 2 2 2 2 3 3 3 4 3 3 3 3 3 3 3 3 2 1 1 1 2 2 2 3 3 3 4 4 4
10 10 8 7 5 5 5 4 5 5 5 4 3 3 2 2 2 2 2 2 3 3 3 3 3 3 3 2 2 2 2 1 1 1 2 2 2 1 2 3 4 4 4
9 9 9 8 7 5 5 5 4 5 6 5 3 4 3 2 2 2 2 2 2 2 2 2 3 3 2 3 2 2 2 2 1 2 2 2 3 2 1 1 2 4 4
9 10 9 8 7 6 5 5 5 5 5 5 4 3 3 3 2 3 3 3 2 2 2 2 2 3 3 3 3 3 3 2 2 1 1 2 2 2 3 2 1 2 3
8 8 9 7 6 6 5 4 4 4 4 5 6 5 4 4 3 3 3 2 2 1 2 2 2 3 3 3 3 3 3 2 3 2 2 2 2 1 2 2 2 2 2
7 8 8 8 7 7 6 5 5 4 4 4 5 6 5 5 4 4 3 3 2 2 2 2 2 3 3 3 3 2 2 2 3 2 2 3 2 2 2 2 1 2 1
8 7 8 7 7 7 7 6 6 5 4 4 4 5 5 3 3 3 3 3 3 2 3 3 3 3 3 3 3 2 2 2 3 3 3 2 2 2 2 2 2 2 1
8 8 8 8 7 7 6 7 7 5 5 4 3 3 4 4 4 3 3 3 3 3 4 4 4 3 3 3 3 2 2 3 3 2 3 2 2 2 2 2 2 2 2
7 8 8 8 7 6 5 6 6 6 5 5 4 3 3 4 3 3 4 4 4 4 4 4 4 4 3 3 3 3 2 3 2 2 4 3 2 2 2 2 2 2 3
8 7 7 7 7 6 6 5 5 5 5 5 5 4 4 4 4 3 4 4 4 4 4 4 4 3 3 3 3 3 3 3 2 2 3 3 2 2 2 2 2 2 3
7 7 7 7 6 6 6 6 6 6 5 4 5 4 4 4 4 4 4 5 4 3 3 3 3 3 3 3 3 3 2 2 2 2 3 2 2 2 2 1 2 2 2
7 7 7 6 6 6 6 6 6 6 6 5 5 4 4 4 4 4 4 5 4 4 4 4 3 3 3 3 3 2 2 2 2 3 3 2 2 2 1 1 2 1 2
6 6 6 6 6 6 6 6 6 6 6 5 5 4 4 4 4 4 4 4 4 4 4 4 4 3 3 3 2 2 3 2 2 2 3 3 3 1 1 2 2 2 2
6 6 6 6 6 5 5 5 5 5 6 5 5 5 5 4 3 3 3 3 3 4 4 4 4 3 3 2 2 2 3 3 3 3 3 4 5 6 4 3 2 2 1
6 6 6 6 6 6 5 5 5 6 6 6 5 5 5 5 3 3 3 3 3 3 4 4 4 4 3 5 5 3 2 2 3 3 3 4 4 5 5 6 5 4 2
5 4 6 6 7 7 6 6 6 6 6 6 6 6 6 6 5 4 3 4 3 3 3 4 4 4 3 5 4 3 1 1 2 2 2 2 3 3 2 2 3 2 2
5 5 4 5 6 7 7 7 6 6 6 6 7 6 6 6 5 4 4 4 4 3 3 3 4 4 3 5 4 2 1 1 1 2 2 2 2 1 2 2 2 1 0
3 3 4 4 5 6 7 8 7 7 6 7 7 7 6 6 6 5 4 4 3 4 4 3 4 5 4 4 3 2 1 1 1 2 2 2 2 3 3 2 2 1 0
3 3 3 4 4 4 6 7 7 7 7 7 7 7 7 7 6 5 4 3 3 4 4 4 4 5 4 5 4 3 1 1 1 2 2 3 3 3 2 1 2 2 1
3 3 2 3 3 4 5 6 6 7 6 6 7 7 7 7 6 5 4 4 3 4 4 4 4 4 5 6 6 5 2 2 2 2 2 1 3 3 3 2 1 1 1
3 3 2 2 2 3 4 5 5 6 6 6 6 7 7 7 6 5 4 4 4 4 4 3 3 3 4 5 6 7 4 2 2 2 2 2 4 4 3 2 1 1 1
3 3 3 2 2 2 3 4 3 5 6 6 6 6 7 6 6 6 5 4 4 4 3 3 3 3 3 4 7 8 7 4 2 2 4 4 4 4 2 3 2 1 0
3 3 3 2 2 2 2 2 3 5 6 6 5 5 6 6 5 5 4 4 4 4 4 3 3 3 3 3 3 3 4 4 3 2 3 3 3 3 2 2 2 2 2
2 3 3 3 3 3 3 3 3 4 5 6 6 5 5 5 5 4 3 4 3 4 5 4 4 4 3 5 6 5 3 3 3 3 2 2 2 2 2 2 2 2 2
2 2 2 3 3 3 3 4 3 5 5 5 5 5 4 5 5 4 3 2 2 4 5 4 4 3 4 7 9 8 7 7 6 4 2 3 3 3 3 3 3 2 3
Wind_Direction
164 154 157 160 162 165 155 143 139 132 119 109 102 97 90 80 74 69 59 51 49 45 57 58 51 58 65 68 82 82 81 86 90 85 80 67 73 76 66 60 70 66 62
163 156 159 163 168 162 156 146 142 136 125 108 114 117 105 101 95 75 64 63 57 48 57 68 69 77 72 60 66 78 73 73 102 119 125 100 44 37 71 69 67 68 63
169 163 166 162 165 166 158 149 146 140 129 130 121 115 102 93 97 96 76 63 69 61 49 58 73 83 93 87 77 83 83 53 350 48 100 120 126 104 46 67 71 64 60
169 164 167 167 172 169 155 161 163 149 142 143 141 145 136 134 135 126 127 111 96 85 58 65 75 80 79 83 64 68 64 63 13 5 29 74 115 124 114 40 66 75 66
173 167 168 170 170 164 162 171 166 149 149 151 146 149 143 148 137 126 128 125 110 109 91 69 79 86 85 84 69 61 48 50 52 39 29 39 45 65 112 115 86 64 65
168 165 164 163 163 155 157 164 154 149 153 159 159 160 149 147 139 139 141 136 120 101 104 96 80 83 82 80 77 77 66 52 48 44 53 66 64 53 80 107 117 104 80
166 166 161 159 158 158 163 164 160 165 167 177 170 163 161 166 159 156 158 149 131 122 118 102 90 83 79 84 77 74 74 74 65 54 54 55 57 64 82 99 110 108 117
166 164 158 156 157 163 167 173 172 174 175 183 176 165 159 155 150 161 154 144 134 135 126 110 96 90 87 86 77 70 62 68 73 70 69 65 49 52 79 106 110 103 83
167 164 158 156 156 159 169 177 170 171 177 188 172 155 156 151 159 159 142 133 136 133 124 123 116 107 99 96 96 88 74 62 57 64 73 74 59 49 51 72 96 119 112
168 165 160 159 158 161 168 171 170 174 178 181 172 154 156 156 155 147 142 136 133 130 126 123 126 121 114 105 97 99 102 95 74 65 67 60 55 51 46 45 43 74 118
167 164 159 160 159 161 169 169 164 171 181 177 164 164 166 162 158 149 146 140 138 140 140 137 131 130 127 123 114 112 101 108 105 93 92 78 65 64 48 39 51 58 89
159 160 158 159 162 166 171 175 174 177 176 169 162 160 160 158 161 155 148 140 139 140 140 137 128 126 123 123 123 125 117 117 121 112 102 100 82 69 52 52 60 67 89
161 159 157 161 165 171 175 178 175 177 172 166 156 156 163 164 164 157 153 150 149 144 135 129 125 124 120 114 123 126 121 110 103 102 98 93 89 90 66 68 66 66 80
158 156 156 163 165 173 176 175 174 169 165 161 156 157 157 148 151 149 148 143 145 144 139 136 130 127 124 121 119 119 115 111 97 90 90 86 86 84 92 78 68 74 82
157 161 161 162 162 169 172 170 167 162 161 158 157 156 142 132 130 137 142 132 131 129 127 128 124 116 110 93 88 115 127 131 123 109 99 90 86 77 76 81 70 71 81
167 170 168 165 167 172 170 167 164 164 163 165 157 142 137 131 130 138 141 129 122 120 120 121 120 117 108 94 75 67 76 118 128 127 129 128 111 100 94 92 87 86 99
163 169 172 174 177 178 171 166 166 166 165 158 148 146 146 143 149 158 142 138 141 138 131 129 121 117 115 116 99 73 59 78 107 123 130 125 121 133 141 122 104 72 66
163 169 173 178 178 174 170 167 164 164 164 160 157 156 155 153 155 159 152 150 154 155 146 142 135 127 134 138 135 138 158 131 113 122 129 129 120 98 103 113 108 113 160
151 159 169 174 174 175 172 168 167 169 170 166 162 159 156 153 157 163 161 161 156 151 151 150 142 137 143 147 145 152 177 150 128 95 85 104 110 88 84 121 135 119 131
122 132 157 167 170 174 167 169 173 173 177 171 165 160 159 157 165 169 164 157 150 154 155 155 154 153 150 154 150 165 178 155 140 121 100 90 116 107 99 141 154 163 212
118 126 139 149 158 164 166 177 177 180 176 163 159 156 159 161 163 160 160 151 151 152 156 156 162 161 155 160 165 168 174 179 157 152 154 144 151 148 135 123 129 155 126
128 129 127 127 145 157 169 177 178 172 158 153 157 158 158 162 160 156 159 160 161 159 164 162 165 163 155 158 173 174 179 174 158 164 151 147 154 155 146 144 126 83 55
144 138 135 139 144 156 167 171 162 151 147 151 157 159 157 157 155 157 161 167 166 165 173 173 174 169 160 161 168 178 184 188 179 161 154 157 162 161 168 190 200 186 158
141 143 150 152 152 159 168 164 146 151 151 154 155 155 156 154 154 156 165 172 175 175 179 179 183 176 163 161 164 173 184 180 176 180 171 178 184 185 205 203 212 200 192
145 155 165 168 170 162 164 153 152 154 157 160 162 164 156 153 150 148 160 170 178 183 181 185 179 175 185 188 169 165 177 180 184 170 165 179 181 193 210 210 206 200 199
153 163 172 174 173 164 163 159 158 162 168 172 167 162 155 153 153 150 137 112 146 157 166 170 170 175 178 171 171 174 175 176 175 165 177 198 205 208 206 205 209 205 209